STEAMSAT-2 (51099 NORAD) Tracking and Keplerian Element Data

This shows tracking and keplerian element data for the satellite.

Feedback or suggestion? Click here.




ElementValue
Catalog51099
NameSTEAMSAT-2
Epoch Orbit1931
Epoch Day140.52902439
Epoch Year2022
RAAN222.7485
Inclination44.9667
Eccentricity0.0001799
Argument of Perigee309.802
Mean Anonmoly50.2703
Mean Motion15.26235902
Decay Rate0.00020764
L11 51099U 22003F 22140.52902439 .00020764 00000+0 79586-3 0 9990
L22 51099 44.9667 222.7485 0001799 309.8020 50.2703 15.26235902 19316

Live tracking and technical data element details for STEAMSAT-2 (NORAD 51099). STEAMSAT-2 can be tracked NOW for your location showing map with azimuth and elevation plus other details from your city location.

Track the satellite on the map from your city or location and see movement details for azimuth, elevation, latitude, longitude, range, height, and movement on the map or in text.







IsCatalogInMostPopularTable: catalog: 51099, numindb: 23
Update: records affected: 1



GetName: 51099 STEAMSAT-2

Hit Count: updated at: Mon, 23 May 2022 19:58:30 GMT